This is the latest recevied weather packets stored in our database for station/object KD9JJA. If no packets are shown the sender has not sent any weather packets the latest 10 day(s).
| Time | Temp. | Humidity | Pressure | Rain* | Wind** | Luminosity | Snow |
|---|---|---|---|---|---|---|---|
| 1777755944 | 12.78° C | 47% | 1019 hPa | 0 mm | - | 63 W/m² | - |
| 1777755642 | 12.78° C | 48% | 1019 hPa | 0 mm | - | 53 W/m² | - |
| 1777755338 | 12.78° C | 43% | 1018.9 hPa | 0 mm | - | 64 W/m² | - |
| 1777754430 | 12.78° C | 50% | 1019.2 hPa | 0 mm | - | 86 W/m² | - |
| 1777754126 | 12.78° C | 52% | 1019.1 hPa | 0 mm | - | 98 W/m² | - |
| 1777753823 | 12.78° C | 46% | 1019.3 hPa | 0 mm | - | 79 W/m² | - |
| 1777753519 | 12.78° C | 47% | 1019.2 hPa | 0 mm | - | 57 W/m² | - |
| 1777753218 | 13.33° C | 41% | 1019.3 hPa | 0 mm | - | 372 W/m² | - |
| 1777752914 | 13.33° C | 44% | 1019.4 hPa | 0 mm | - | 50 W/m² | - |
| 1777752610 | 12.78° C | 47% | 1019.2 hPa | 0 mm | - | 74 W/m² | - |
| 1777751702 | 12.78° C | 48% | 1019.2 hPa | 0 mm | - | 94 W/m² | - |
| 1777751095 | 12.78° C | 46% | 1019.2 hPa | 0 mm | - | 469 W/m² | - |
| 1777750488 | 12.78° C | 53% | 1019.4 hPa | 0 mm | - | 383 W/m² | - |
| 1777750183 | 13.33° C | 44% | 1019.4 hPa | 0 mm | - | 167 W/m² | - |
| 1777749880 | 12.78° C | 47% | 1019.4 hPa | 0 mm | - | 280 W/m² | - |
| 1777749577 | 13.33° C | 44% | 1019.6 hPa | 0 mm | - | 53 W/m² | - |
| 1777749275 | 13.33° C | 47% | 1019.6 hPa | 0 mm | - | 203 W/m² | - |
| 1777748972 | 12.78° C | 48% | 1019.8 hPa | 0 mm | - | 200 W/m² | - |
| 1777748669 | 12.78° C | 43% | 1019.6 hPa | 0 mm | - | 204 W/m² | - |
| 1777748366 | 12.78° C | 47% | 1019.8 hPa | 0 mm | - | 223 W/m² | - |
| 1777748061 | 13.33° C | 43% | 1019.9 hPa | 0 mm | - | 223 W/m² | - |
| 1777747759 | 13.33° C | 47% | 1019.7 hPa | 0 mm | - | 61 W/m² | - |
| 1777747454 | 12.22° C | 44% | 1019.8 hPa | 0 mm | - | 148 W/m² | - |
| 1777747151 | 12.78° C | 46% | 1019.7 hPa | 0 mm | - | 67 W/m² | - |
| 1777746542 | 12.78° C | 52% | 1019.6 hPa | 0 mm | - | 156 W/m² | - |
* Rain latest hour (hover to see other rain measurements)
** Current wind speed in m/s (hover to see current wind gust speed)